{"data":{"norad_id":60104,"intl_designator":"2024-117P","name":"STARLINK-32009","alt_names":[],"object_type":"PAYLOAD","status":"ACTIVE","operator":null,"country":"US","launch_date":"2024-06-23","launch_site_code":"AFETR","launch_vehicle":null,"mission":null,"orbit_class":"UNKNOWN","rcs_meters":null,"size_class":null,"mass_kg":null,"dimensions":null,"purposes":["comms"],"wikipedia_slug":null,"has_3d_model":false,"image_url":null,"decayed_at":null,"tle_current":{"epoch":"2026-09-21T02:53:01.176864Z","epoch_age_seconds":123826,"freshness":"FRESH","line1":"1 60104U 24117P   26264.12015251 -.00000136  00000+0  71125-5 0  9994","line2":"2 60104  53.1601 206.8011 0001357  73.4545 286.6607 15.34392532126844","mean_motion":15.34392532,"eccentricity":0.0001357,"inclination_deg":53.1601,"raan_deg":206.8011,"arg_perigee_deg":73.4545,"mean_anomaly_deg":286.6607,"bstar":7.1125e-6,"rev_number":12684,"period_min":93.848214845196,"perigee_km":461.79713173427,"apogee_km":463.65374179961,"semimajor_km":6840.8624367669,"source":"CELESTRAK","updated_at":"2026-09-22T09:00:49.152289Z"}}}